• In Schweiz
  • Länderverzeichnis
  • Für 7 Tage
  • Wassertemperatur
  • Satellitenkarten
  • Wetterkarte
  • Widgets
  • user-avatar
    Anmelden

    Stündliche Wetter Leknes

    Heute, 22 November, Mittwoch

    Zeit Temperatur Niederschläge Wind Luftdruck Luftfeuchtigkeit
    00:00 -10°C° 0 mm 8 m/S 738 mmHg 68%
    01:00 -11°C° 0 mm 8 m/S 738 mmHg 68%
    02:00 -11°C° 0 mm 9 m/S 738 mmHg 68%
    03:00 -11°C° 0 mm 9 m/S 738 mmHg 68%
    04:00 -11°C° 0 mm 9 m/S 738 mmHg 68%
    05:00 -11°C° 0 mm 9 m/S 738 mmHg 68%
    06:00 -11°C° 0 mm 9 m/S 738 mmHg 67%
    07:00 -11°C° 0 mm 9 m/S 738 mmHg 67%
    08:00 -12°C° 0 mm 9 m/S 738 mmHg 67%
    09:00 -13°C° 0 mm 10 m/S 738 mmHg 66%
    10:00 -13°C° 0 mm 10 m/S 738 mmHg 66%
    11:00 -12°C° 0 mm 10 m/S 738 mmHg 65%
    12:00 -12°C° 0 mm 11 m/S 738 mmHg 64%
    13:00 -12°C° 0 mm 11 m/S 738 mmHg 63%
    14:00 -12°C° 0 mm 11 m/S 737 mmHg 62%
    15:00 -12°C° 0 mm 12 m/S 737 mmHg 62%
    16:00 -12°C° 0 mm 12 m/S 737 mmHg 62%
    17:00 -11°C° 0 mm 12 m/S 736 mmHg 62%
    18:00 -11°C° 0 mm 13 m/S 735 mmHg 61%
    19:00 -11°C° 0 mm 13 m/S 735 mmHg 61%
    20:00 -11°C° 0 mm 14 m/S 734 mmHg 61%
    21:00 -11°C° 0 mm 14 m/S 734 mmHg 60%
    22:00 -11°C° 0 mm 14 m/S 733 mmHg 60%
    23:00 -11°C° 0 mm 14 m/S 732 mmHg 60%

    Morgen, 23 November, Donnerstag

    Zeit Temperatur Niederschläge Wind Luftdruck Luftfeuchtigkeit
    00:00 -10°C° 0 mm 15 m/S 732 mmHg 60%
    01:00 -10°C° 0 mm 15 m/S 731 mmHg 59%
    02:00 -10°C° 0,1 mm 15 m/S 730 mmHg 59%
    03:00 -9°C° 0,1 mm 15 m/S 729 mmHg 59%
    04:00 -9°C° 0,1 mm 16 m/S 729 mmHg 59%
    05:00 -8°C° 0,2 mm 16 m/S 728 mmHg 58%
    06:00 -8°C° 0,2 mm 17 m/S 727 mmHg 58%
    07:00 -7°C° 0,2 mm 17 m/S 726 mmHg 58%
    08:00 -7°C° 0,2 mm 18 m/S 725 mmHg 57%
    09:00 -7°C° 0,2 mm 18 m/S 725 mmHg 57%
    10:00 -7°C° 0,2 mm 18 m/S 724 mmHg 56%
    11:00 -7°C° 0,2 mm 19 m/S 723 mmHg 56%
    12:00 -7°C° 0,2 mm 19 m/S 723 mmHg 56%
    13:00 -7°C° 0,2 mm 19 m/S 722 mmHg 56%
    14:00 -7°C° 0,3 mm 19 m/S 721 mmHg 57%
    15:00 -7°C° 0,3 mm 19 m/S 720 mmHg 57%
    16:00 -7°C° 0,3 mm 19 m/S 720 mmHg 58%
    17:00 -7°C° 0,3 mm 18 m/S 719 mmHg 60%
    18:00 -7°C° 0,3 mm 18 m/S 718 mmHg 61%
    19:00 -7°C° 0,3 mm 18 m/S 717 mmHg 63%
    20:00 -7°C° 0,2 mm 17 m/S 717 mmHg 63%
    21:00 -5°C° 0,2 mm 16 m/S 716 mmHg 63%
    22:00 -5°C° 0,2 mm 15 m/S 716 mmHg 63%
    23:00 -5°C° 0,2 mm 15 m/S 715 mmHg 63%

    übermorgen, 24 November, Freitag

    Zeit Temperatur Niederschläge Wind Luftdruck Luftfeuchtigkeit
    00:00 -5°C° 0,2 mm 14 m/S 715 mmHg 62%
    01:00 -5°C° 0,2 mm 14 m/S 715 mmHg 62%
    02:00 -5°C° 0,1 mm 14 m/S 715 mmHg 62%
    03:00 -5°C° 0,1 mm 14 m/S 715 mmHg 63%
    04:00 -5°C° 0,1 mm 14 m/S 715 mmHg 64%
    05:00 -5°C° 0 mm 14 m/S 716 mmHg 65%
    06:00 -5°C° 0 mm 13 m/S 716 mmHg 66%
    07:00 -6°C° 0 mm 13 m/S 716 mmHg 67%
    08:00 -6°C° 0,1 mm 12 m/S 717 mmHg 69%
    09:00 -5°C° 0,1 mm 10 m/S 717 mmHg 72%
    10:00 -5°C° 0,1 mm 9 m/S 718 mmHg 74%
    11:00 -5°C° 0,3 mm 9 m/S 718 mmHg 79%
    12:00 -5°C° 0,3 mm 8 m/S 719 mmHg 85%
    13:00 -5°C° 0,3 mm 8 m/S 719 mmHg 91%
    14:00 -5°C° 0,3 mm 8 m/S 719 mmHg 90%
    15:00 -4°C° 0,3 mm 7 m/S 719 mmHg 90%
    16:00 -4°C° 0,3 mm 7 m/S 719 mmHg 90%
    17:00 -4°C° 0 mm 7 m/S 719 mmHg 87%
    18:00 -5°C° 0 mm 8 m/S 719 mmHg 84%
    19:00 -4°C° 0 mm 8 m/S 719 mmHg 80%
    20:00 -5°C° 0 mm 9 m/S 719 mmHg 78%
    21:00 -5°C° 0 mm 9 m/S 719 mmHg 76%
    22:00 -6°C° 0 mm 9 m/S 719 mmHg 74%
    23:00 -6°C° 0,1 mm 9 m/S 719 mmHg 74%

    25 November, Samstag

    Zeit Temperatur Niederschläge Wind Luftdruck Luftfeuchtigkeit
    00:00 -6°C° 0,1 mm 8 m/S 719 mmHg 73%
    01:00 -6°C° 0,1 mm 8 m/S 719 mmHg 73%
    02:00 -6°C° 0,2 mm 8 m/S 719 mmHg 73%
    03:00 -6°C° 0,2 mm 8 m/S 719 mmHg 72%
    04:00 -6°C° 0,2 mm 8 m/S 719 mmHg 72%
    05:00 -6°C° 0,5 mm 9 m/S 719 mmHg 74%
    06:00 -6°C° 0,5 mm 9 m/S 720 mmHg 77%
    07:00 -7°C° 0,5 mm 10 m/S 720 mmHg 79%
    08:00 -7°C° 0,4 mm 10 m/S 721 mmHg 81%
    09:00 -7°C° 0,4 mm 10 m/S 721 mmHg 82%
    10:00 -7°C° 0,4 mm 11 m/S 722 mmHg 84%
    11:00 -6°C° 0,3 mm 11 m/S 722 mmHg 82%
    12:00 -6°C° 0,3 mm 11 m/S 723 mmHg 80%
    13:00 -6°C° 0,3 mm 11 m/S 723 mmHg 78%
    14:00 -6°C° 0,3 mm 11 m/S 723 mmHg 78%
    15:00 -6°C° 0,3 mm 11 m/S 724 mmHg 77%
    16:00 -6°C° 0,3 mm 11 m/S 724 mmHg 76%
    17:00 -5°C° 0,2 mm 10 m/S 724 mmHg 75%
    18:00 -5°C° 0,2 mm 10 m/S 725 mmHg 75%
    19:00 -5°C° 0,2 mm 9 m/S 725 mmHg 74%
    20:00 -5°C° 0,1 mm 9 m/S 725 mmHg 73%
    21:00 -5°C° 0,1 mm 8 m/S 726 mmHg 72%
    22:00 -4°C° 0,1 mm 7 m/S 726 mmHg 71%
    23:00 -6°C° 0 mm 7 m/S 727 mmHg 71%

    26 November, Sonntag

    Zeit Temperatur Niederschläge Wind Luftdruck Luftfeuchtigkeit
    00:00 -5°C° 0 mm 6 m/S 727 mmHg 71%
    01:00 -5°C° 0 mm 5 m/S 727 mmHg 70%
    02:00 -5°C° 0 mm 5 m/S 727 mmHg 70%
    03:00 -5°C° 0 mm 4 m/S 727 mmHg 70%
    04:00 -5°C° 0 mm 4 m/S 727 mmHg 69%
    05:00 -5°C° 0 mm 4 m/S 727 mmHg 69%
    06:00 -5°C° 0 mm 3 m/S 727 mmHg 68%
    07:00 -5°C° 0 mm 3 m/S 727 mmHg 68%
    08:00 -6°C° 0 mm 3 m/S 727 mmHg 68%
    09:00 -6°C° 0 mm 3 m/S 728 mmHg 67%
    10:00 -7°C° 0 mm 4 m/S 728 mmHg 67%
    11:00 -7°C° 0 mm 3 m/S 728 mmHg 67%
    12:00 -7°C° 0 mm 3 m/S 728 mmHg 67%
    13:00 -7°C° 0 mm 3 m/S 727 mmHg 66%
    14:00 -7°C° 0 mm 3 m/S 727 mmHg 67%
    15:00 -7°C° 0 mm 3 m/S 727 mmHg 67%
    16:00 -7°C° 0 mm 3 m/S 727 mmHg 67%
    17:00 -7°C° 0 mm 3 m/S 727 mmHg 67%
    18:00 -7°C° 0 mm 3 m/S 727 mmHg 67%
    19:00 -7°C° 0 mm 3 m/S 727 mmHg 67%
    20:00 -7°C° 0 mm 3 m/S 726 mmHg 66%
    21:00 -6°C° 0 mm 3 m/S 726 mmHg 66%
    22:00 -6°C° 0 mm 3 m/S 726 mmHg 66%
    23:00 -6°C° 0 mm 3 m/S 726 mmHg 66%

    27 November, Montag

    Zeit Temperatur Niederschläge Wind Luftdruck Luftfeuchtigkeit
    00:00 -7°C° 0 mm 4 m/S 725 mmHg 66%
    01:00 -5°C° 0 mm 4 m/S 725 mmHg 67%
    02:00 -5°C° 0 mm 4 m/S 725 mmHg 69%
    03:00 -6°C° 0 mm 5 m/S 724 mmHg 72%
    04:00 -6°C° 0 mm 5 m/S 724 mmHg 74%
    05:00 -6°C° 0 mm 5 m/S 724 mmHg 77%
    06:00 -6°C° 0 mm 6 m/S 724 mmHg 80%
    07:00 -6°C° 0 mm 6 m/S 724 mmHg 83%
    08:00 -7°C° 0 mm 7 m/S 724 mmHg 84%
    09:00 -7°C° 0 mm 7 m/S 724 mmHg 86%
    10:00 -7°C° 0 mm 7 m/S 724 mmHg 88%
    11:00 -6°C° 0 mm 7 m/S 724 mmHg 88%
    12:00 -6°C° 0 mm 8 m/S 725 mmHg 88%
    13:00 -6°C° 0 mm 8 m/S 725 mmHg 88%
    14:00 -6°C° 0 mm 8 m/S 725 mmHg 87%
    15:00 -6°C° 0 mm 8 m/S 725 mmHg 87%
    16:00 -6°C° 0 mm 9 m/S 725 mmHg 86%
    17:00 -6°C° 0 mm 9 m/S 725 mmHg 86%
    18:00 -6°C° 0 mm 9 m/S 726 mmHg 86%
    19:00 -7°C° 0 mm 10 m/S 726 mmHg 85%
    20:00 -8°C° 0 mm 10 m/S 726 mmHg 85%
    21:00 -8°C° 0 mm 10 m/S 727 mmHg 84%
    22:00 -8°C° 0 mm 11 m/S 727 mmHg 84%
    23:00 -8°C° 0 mm 11 m/S 728 mmHg 84%
    Mehr zeigen